Regional Weather Roundup
Issued by NWS

Home | Current Version | Previous Version | Text Only | Print | Product List | Glossary On
Versions: 1 2 3 4 5 6 7 8 9 10 11 12 13 14 15 16 17 18 19 20 21 22 23 24 25 26 27 28 29 30 31 32 33 34 35 36 37 38 39 40 41 42 43 44 45 46 47 48 49 50
000
ASUS42 KTBW 271916
RWRFL
FLORIDA REGIONAL WEATHER ROUNDUP
NATIONAL WEATHER SERVICE TAMPA BAY RUSKIN FL
300 PM EDT THU AUG 27 2015

NOTE: "FAIR" INDICATES FEW OR NO CLOUDS BELOW 12,000 FEET WITH NO
SIGNIFICANT WEATHER AND/OR OBSTRUCTIONS TO VISIBILITY.


FLZ001>010-012>015-112-114-115-272000-
PANHANDLE FLORIDA

CITY           SKY/WX    TMP DP  RH WIND       PRES   REMARKS
PENSACOLA      SUNNY     87  62  43 VRB5      29.94F
PENSACOLA NAS  MOSUNNY   83  66  56 S8        29.94F
MILTON NAS     MOSUNNY   89  60  37 NE9       29.94
CRESTVIEW      SUNNY     91  61  36 VRB7      29.95F
DUKE FIELD     MOSUNNY   90  54  29 E8        29.93F
VALPARAISO     MOSUNNY   86  63  45 VRB7      29.94F
MARY ESTHER    SUNNY     85  63  47 S9        29.93F
TRI COUNTY     FAIR      92  57  30 CALM      29.93F
PANAMA CITY    FAIR      89  60  37 S7        29.92F
TYNDALL AFB    SUNNY     87  62  42 SW10      29.92F
APALACHICOLA   SUNNY     89  67  47 SE7       29.92F

STATION/POSITION SKY/WX   TEMP    WIND        PRES    WAVE   SWELL
                          AIR SEA DIR/SP/G            HT/PER HT/PER
                          (F)     (DEG/KT/KT) (MB)    (FT/S) (FT/S)
30.1N   87.6W              79 86  250/  4/  4 1014.2    1
29.2N   88.2W              79 86  350/  6/ 10 1015.0F   2/ 4   2/ 4
28.8N   86.0W              82 86   40/  8/ 10 1014.4F   1/ 5   2/ 5
PANAMA CITY BEAC           82 84  230/  8/ 10 1014.2F
CAPE SAN BLAS    NOT AVBL
TOWER C                    83      50/  6/  9 1013.4F
28.5N   84.5W              86 89  140/  4/  4 1013.3F   2/ 4   2/ 6

$$
FLZ011-016>038-118-127-128-134-139-239-272000-
NORTH FLORIDA

CITY           SKY/WX    TMP DP  RH WIND       PRES   REMARKS
MARIANNA       SUNNY     90  56  31 MISG      29.92F
TALLAHASSEE    MOSUNNY   93  62  35 NE7       29.93F
PERRY          MOSUNNY   90  48  23 W3        29.92F
CROSS CITY       N/A     83  75  77 W5        29.93R
LAKE CITY      FAIR      88  73  62 NE3       29.94S HX  96
GAINESVILLE    CLOUDY    86  76  71 SE6       29.94F HX  96
MAYPORT NAS    CLOUDY    87  75  67 SE10      29.94F HX  96
JACKSONVILLE   CLOUDY    87  72  60 SE8       29.93S
JAX NAS        PTSUNNY   90  73  57 SW6       29.94F HX  98
JAX CRAIG      PTSUNNY   88  73  61 SE5       29.94S HX  95
JAX CECIL      MOSUNNY   88  75  66 CALM      29.94F HX  97
FERNANDINA BEA FAIR      88  72  58 SE9       29.94S
ST AUGUSTINE   PTSUNNY   84  75  74 E9        29.95F

STATION/POSITION SKY/WX   TEMP    WIND        PRES    WAVE   SWELL
                          AIR SEA DIR/SP/G            HT/PER HT/PER
                          (F)     (DEG/KT/KT) (MB)    (FT/S) (FT/S)
SHELL POINT                87     130/  7/  8   N/A
KEATON BEACH               85     230/  6/  7 1013.2F
CEDAR KEY                  84     150/  9/ 11 1013.9F
FERNANDINA                 85 85  130/  5/ 10 1013.5F
30.7N   81.3W                 87                N/A     2/10   2/11
MAYPORT                    84 86  130/  6/ 11 1014.7F
31.4N   80.9W              83 86  140/ 10/ 14 1014.5F   3/10   2/10
ST AUGUSTINE               82 87  130/  8/  9 1014.8F

$$
FLZ040-043>046-052-053-057-058-063-144-272000-
INTERIOR CENTRAL FLORIDA

CITY           SKY/WX    TMP DP  RH WIND       PRES   REMARKS
OCALA          PTSUNNY   86  75  70 SE10      29.95F HX  95
THE VILLAGES     N/A     86  77  74 SE7       29.85F HX  97
LEESBURG       LGT RAIN  81  74  79 S3        29.96F
SANFORD        LGT RAIN  76  73  91 W7        29.95F FOG
ORLANDO EXEC   LGT RAIN  75  74  96 CALM      29.96F FOG
ORLANDO INTL   LGT RAIN  74  72  93 CALM      29.97F
KISSIMMEE      SUNNY     75  72  88 CALM      29.97F
WINTER HAVEN   CLOUDY    77  73  87 NE6G20    29.97F
LAKELAND       CLOUDY    81  72  74 CALM      29.96F
BARTOW         PTSUNNY   77  75  94 E6        29.97F
OKEECHOBEE     TSTM      72  70  94 NE5       29.96F

$$
FLZ041-047-054-059-064-141-147-272000-
EAST CENTRAL FLORIDA

CITY           SKY/WX    TMP DP  RH WIND       PRES   REMARKS
DAYTONA BEACH  NOT AVBL
DELAND           N/A     75  72  88 SE3       29.97F
NEW SMYRNA BEA PTSUNNY   72  72 100 W6        29.95F
TITUSVILLE     LGT RAIN  75  73  94 W14       29.97
CAPE CANAVERAL CLOUDY    90  74  59 W15       29.94S HX  98
PATRICK AFB    TSTM      75  70  83 SW15      29.97R VSB 1
MELBOURNE      TSTM      73  71  93 NW10      29.98R VSB 1
VERO BEACH     CLOUDY    85  69  58 S9        29.94F THUNDER
FT PIERCE      RAIN      81  73  76 NE6       29.94F
STUART         PTSUNNY   84  72  65 E9        29.96F THUNDER

STATION/POSITION SKY/WX   TEMP    WIND        PRES    WAVE   SWELL
                          AIR SEA DIR/SP/G            HT/PER HT/PER
                          (F)     (DEG/KT/KT) (MB)    (FT/S) (FT/S)
28.5N   80.2W              82 85  150/  8/ 10 1014.9F
28.9N   78.5W              74 85  170/  4/  8 1016.3R
TRIDENT PIER               86 87  140/  2/  6 1014.7F
28.4N   80.5W                 87                N/A     1/ 9
27.5N   80.2W                 86                N/A     1/11

$$
FLZ050-056-061-142-242-148-248-149-249-151-251-155-255-
160-260-272000-
WEST CENTRAL FLORIDA

CITY           SKY/WX    TMP DP  RH WIND       PRES   REMARKS
CRYSTAL RIVER  FAIR      86  77  74 SE6       29.93F HX  97
INVERNESS      FAIR      82  77  83 CALM      29.95F
BROOKSVILLE    CLOUDY    84  76  76 SE6       29.95F
CLEARWATER     CLOUDY    82  75  79 S6        29.94F
TAMPA INTL     CLOUDY    82  74  76 SE6       29.94F
TAMPA EXEC     CLOUDY    82  73  74 SW3       29.96F
PLANT CITY     CLOUDY    84  73  70 S5        29.96F
MACDILL AFB    CLOUDY    82  77  87 SE5       29.94F
PETER O KNIGHT CLOUDY    82  75  78 SE3       29.94F
ST PETERSBURG  CLOUDY    82  75  79 SW6       29.93F
SARASOTA       CLOUDY    82  76  81 SE6       29.92F
VENICE         FAIR      81  73  78 NE5       29.95R

STATION/POSITION SKY/WX   TEMP    WIND        PRES    WAVE   SWELL
                          AIR SEA DIR/SP/G            HT/PER HT/PER
                          (F)     (DEG/KT/KT) (MB)    (FT/S) (FT/S)
CEDAR KEY                  84     150/  9/ 11 1013.9F
28.5N   84.5W              86 89  140/  4/  4 1013.3F   2/ 4   2/ 6
27.3N   84.2W                 90                N/A     1/ 4
CLEARWATER BEACH           80 88  130/  8/ 11 1014.5F
MIDDLE TAMPA BAY           80     150/ 10/ 11 1014.6F
VENICE                     81 89   30/  6/  7 1013.2F

$$
FLZ066-069-070-075>078-162-262-165-265-272000-
SOUTHWEST FLORIDA AND KEYS

CITY           SKY/WX    TMP DP  RH WIND       PRES   REMARKS
PUNTA GORDA    CLOUDY    82  76  81 CALM      29.94F
FT MYERS       CLOUDY    81  76  84 S6        29.92F
SOUTHWEST INTL CLOUDY    84  77  79 CALM      29.93F
NAPLES         PTSUNNY   88  75  65 NW7       29.94F HX  97
MARATHON       PTSUNNY   88  75  65 N5        29.95S HX  97
KEY WEST NAS   CLOUDY    79  70  74 S3        29.95F
KEY WEST INTL  CLOUDY    81  72  74 SE5       29.96S

STATION/POSITION SKY/WX   TEMP    WIND        PRES    WAVE   SWELL
                          AIR SEA DIR/SP/G            HT/PER HT/PER
                          (F)     (DEG/KT/KT) (MB)    (FT/S) (FT/S)
VENICE                     81 89   30/  6/  7 1013.2F
NAPLES                        88              1015.2F
26.0N   85.6W              83 89  340/ 10/ 14 1013.9F   2/ 8   2/ 8
DRY TORTUGAS               86     320/  6/  7 1014.1F
NW FL BAY                  81     170/  5/  6 1014.6
SAND KEY                   80     180/ 16     1014.4F
LONG KEY                   86 88   CALM  /  1 1014.9F
MOLASSES REEF              83 88   80/  2/  2 1014.5R

$$
FLZ067-068-071>074-168-172>174-272000-
SOUTHEAST FLORIDA

CITY           SKY/WX    TMP DP  RH WIND       PRES   REMARKS
W PALM BEACH   LGT RAIN  85  73  67 S7        29.96S
FT LAUDER-EXEC CLOUDY    84  71  65 VRB3      29.97R
FT LAUDERDALE  CLOUDY    84  74  71 E7        29.96S
POMPANO BEACH  CLOUDY    83  70  64 S3        29.97R
PEMBROKE PINES CLOUDY    85  70  60 CALM      29.98R
OPA LOCKA      CLOUDY    87  68  52 SE3       29.96S
MIAMI          CLOUDY    86  75  69 S3        29.96F HX  95
WEST KENDALL   CLOUDY    88  72  58 NW3       29.96S
HOMESTEAD      CLOUDY    87  72  60 SE2       29.95F

STATION/POSITION SKY/WX   TEMP    WIND        PRES    WAVE   SWELL
                          AIR SEA DIR/SP/G            HT/PER HT/PER
                          (F)     (DEG/KT/KT) (MB)    (FT/S) (FT/S)
PORT EVERGLADES            81      50/  2/  3 1014.7R
VIRGINIA KEY               81 87  190/  6/  8 1014.8R
LAKE WORTH                 84 86  220/  2/  4 1014.1F
SETTLEMENT POINT           79        CALM     1015.0F

$$



USA.gov is the U.S. government's official web portal to all federal, state and local government web resources and services.